FW1569 Weather Reports


time (UTC)temp
F
wind
direction
speed
knots
gust
knots
rain 1hr
in
rain 24hr
in
rain mn
in
humidity
%
barometer
mb
20260504203038 54 325 5.2 14.8 0.00 0.00 0.00 39 1014.3
20260504200017 55 289 3.5 12.2 0.00 0.00 0.00 32 1014.3
20260504193036 55 290 4.3 14.8 0.00 0.00 0.00 35 1014.5
20260504190016 53 338 3.5 14.8 0.00 0.00 0.00 33 1014.2
20260504183036 53 300 3.5 13.0 0.00 0.00 0.00 33 1014.5
20260504180016 54 314 3.5 13.0 0.00 0.00 0.00 31 1015.5
20260504173016 52 330 3.5 12.2 0.00 0.00 0.00 38 1016.5
20260504050015 42 224 0.9 4.3 0.00 0.00 0.00 38 1019.9
20260504043017 43 267 0.0 2.6 0.00 0.00 0.00 36 1019.6
20260504040037 43 267 0.0 2.6 0.00 0.00 0.00 37 1019.4
20260504033017 44 267 0.9 2.6 0.00 0.00 0.00 36 1019.2
20260504030017 45 267 0.9 3.5 0.00 0.00 0.00 36 1019.0
20260504023016 47 271 0.9 3.5 0.00 0.00 0.00 35 1019.0
20260504020016 50 284 0.0 5.2 0.00 0.00 0.00 32 1017.7
20260504013017 51 288 0.0 12.2 0.00 0.00 0.00 31 1017.1
20260504010037 51 315 2.6 12.2 0.00 0.00 0.00 31 1017.1
20260504003036 52 281 3.5 12.2 0.00 0.00 0.00 29 1017.9
20260504000016 53 298 3.5 12.2 0.00 0.00 0.00 27 1018.3
20260503233017 55 279 3.5 12.2 0.00 0.00 0.00 26 1019.2
20260503230016 55 257 2.6 16.5 0.00 0.00 0.00 26 1019.3
20260503223016 55 289 3.5 16.5 0.00 0.00 0.00 27 1019.0
20260503220016 54 284 3.5 13.9 0.00 0.00 0.00 24 1018.8
20260503213016 54 295 4.3 14.8 0.00 0.00 0.00 28 1019.5
20260503210016 55 277 4.3 14.8 0.00 0.00 0.00 23 1020.6